Location: *
(45.9500°N, 9.0833°E)
Time: 21:05:51
(UTC+00:00)

Tiros 1 - Pass Details

Date: 21 June 2021
Orbit: 630 x 664 km, 48.4° (Epoch: 05 August)

Event Time Altitude Azimuth Distance (km) Brightness Sun altitude
Rises 11:38:42 0° 273° (W) 2,929 10.6 67.3°
Reaches altitude 10° 11:41:02 10° 277° (W) 2,026 9.9 67.3°
Maximum altitude 11:45:40 64° 359° (N) 714 8.1 67.1°
Drops below altitude 10° 11:50:21 10° 81° (E) 2,048 9.8 66.9°
Sets 11:52:44 0° 85° (E) 2,964 10.5 66.8°
